Location: Laura�t
(43.9341°N, 0.2497°E)
Time: 23:39:21
(UTC+00:00)

SL-16 R/B - Pass Details

Date: 03 March 2021
Orbit: 843 x 845 km, 71.0° (Epoch: 17 April)

Event Time Altitude Azimuth Distance (km) Brightness Sun altitude
Rises 19:29:31 0° 233° (SW) 3,391 6.0 -18.6°
Reaches altitude 10° 19:32:13 10° 243° (WSW) 2,460 5.4 -19.1°
Maximum altitude 19:37:14 32° 306° (NW) 1,408 3.9 -20.0°
Drops below altitude 10° 19:42:19 10° 9° (N) 2,475 4.7 -20.9°
Sets 19:45:02 0° 19° (NNE) 3,414 5.3 -21.4°
